Time,TemperatureF,DewpointF,PressureIn,WindDirection,WindDirectionDegrees,WindSpeedMPH,WindSpeedGustMPH,Humidity,HourlyPrecipIn,Conditions,Clouds,dailyrainin,SoftwareType,DateUTC
2013-06-13 00:07:00,79.0,78.4,29.58,NNE,22,0.0,-999.0,98,-99.99,,,0.00,Acu-Link.com,2013-06-13 05:07:00,
2013-06-13 00:22:00,78.6,78.0,29.57,ESE,112,0.0,-999.0,98,-99.99,,,0.00,Acu-Link.com,2013-06-13 05:22:00,
2013-06-13 00:37:00,78.6,78.0,29.58,NE,45,0.0,-999.0,98,-99.99,,,0.00,Acu-Link.com,2013-06-13 05:37:00,
2013-06-13 00:52:00,78.6,78.0,29.58,ESE,112,0.0,-999.0,98,-99.99,,,0.00,Acu-Link.com,2013-06-13 05:52:00,
2013-06-13 01:08:00,78.3,77.7,29.58,ENE,67,0.0,-999.0,98,-99.99,,,0.00,Acu-Link.com,2013-06-13 06:08:00,
2013-06-13 01:23:00,78.1,77.5,29.58,NNW,337,0.0,-999.0,98,-99.99,,,0.00,Acu-Link.com,2013-06-13 06:23:00,
2013-06-13 01:38:00,77.7,77.1,29.59,ENE,67,0.0,-999.0,98,-99.99,,,0.00,Acu-Link.com,2013-06-13 06:38:00,
2013-06-13 01:53:00,78.1,77.5,29.58,WSW,247,0.0,-999.0,98,-99.99,,,0.00,Acu-Link.com,2013-06-13 06:53:00,
2013-06-13 02:08:00,78.1,77.5,29.59,ENE,67,0.0,-999.0,98,-99.99,,,0.00,Acu-Link.com,2013-06-13 07:08:00,
2013-06-13 02:23:00,78.1,77.5,29.58,East,90,0.0,-999.0,98,-99.99,,,0.00,Acu-Link.com,2013-06-13 07:23:00,
2013-06-13 02:38:00,77.7,77.1,29.56,ESE,112,0.0,-999.0,98,-99.99,,,0.00,Acu-Link.com,2013-06-13 07:38:00,
2013-06-13 02:53:00,77.4,76.8,29.56,NNW,337,0.0,-999.0,98,-99.99,,,0.00,Acu-Link.com,2013-06-13 07:53:00,
2013-06-13 03:09:00,77.4,76.8,29.57,NE,45,0.0,-999.0,98,-99.99,,,0.00,Acu-Link.com,2013-06-13 08:09:00,
2013-06-13 03:24:00,77.5,76.9,29.56,ESE,112,0.0,-999.0,98,-99.99,,,0.00,Acu-Link.com,2013-06-13 08:24:00,
2013-06-13 03:39:00,77.9,77.3,29.56,ENE,67,0.0,-999.0,98,-99.99,,,0.00,Acu-Link.com,2013-06-13 08:39:00,
2013-06-13 03:54:00,78.3,77.7,29.55,ENE,67,0.0,-999.0,98,-99.99,,,0.00,Acu-Link.com,2013-06-13 08:54:00,
2013-06-13 04:09:00,78.1,77.5,29.56,SW,225,0.0,-999.0,98,-99.99,,,0.00,Acu-Link.com,2013-06-13 09:09:00,
2013-06-13 04:25:00,77.9,77.3,29.55,NW,315,0.0,-999.0,98,-99.99,,,0.00,Acu-Link.com,2013-06-13 09:25:00,
2013-06-13 04:40:00,77.7,77.1,29.54,ENE,67,2.2,-999.0,98,-99.99,,,0.00,Acu-Link.com,2013-06-13 09:40:00,
2013-06-13 04:55:00,77.7,77.1,29.54,SW,225,4.7,-999.0,98,-99.99,,,0.00,Acu-Link.com,2013-06-13 09:55:00,
2013-06-13 05:10:00,77.7,77.1,29.55,NNE,22,0.0,-999.0,98,-99.99,,,0.00,Acu-Link.com,2013-06-13 10:10:00,
2013-06-13 05:25:00,77.9,77.3,29.55,SW,225,0.0,-999.0,98,-99.99,,,0.00,Acu-Link.com,2013-06-13 10:25:00,
2013-06-13 05:40:00,77.9,77.3,29.56,NW,315,0.0,-999.0,98,-99.99,,,0.00,Acu-Link.com,2013-06-13 10:40:00,
2013-06-13 05:55:00,78.1,77.5,29.55,West,270,3.2,-999.0,98,-99.99,,,0.00,Acu-Link.com,2013-06-13 10:55:00,
2013-06-13 06:10:00,78.8,78.2,29.55,WSW,247,0.0,-999.0,98,-99.99,,,0.00,Acu-Link.com,2013-06-13 11:10:00,
2013-06-13 06:25:00,80.1,79.5,29.56,NNE,22,0.0,-999.0,98,-99.99,,,0.00,Acu-Link.com,2013-06-13 11:25:00,
2013-06-13 06:41:00,81.5,81.2,29.55,NNE,22,0.0,-999.0,99,-99.99,,,0.00,Acu-Link.com,2013-06-13 11:41:00,
2013-06-13 06:56:00,82.9,82.6,29.56,WSW,247,0.0,-999.0,99,-99.99,,,0.00,Acu-Link.com,2013-06-13 11:56:00,
2013-06-13 07:11:00,84.7,84.4,29.54,West,270,3.7,-999.0,99,-99.99,,,0.00,Acu-Link.com,2013-06-13 12:11:00,
2013-06-13 07:26:00,86.9,86.6,29.53,West,270,0.0,-999.0,99,-99.99,,,0.00,Acu-Link.com,2013-06-13 12:26:00,
2013-06-13 07:41:00,86.9,86.6,29.54,West,270,3.7,-999.0,99,-99.99,,,0.00,Acu-Link.com,2013-06-13 12:41:00,
2013-06-13 07:56:00,86.5,86.2,29.55,West,270,6.8,-999.0,99,-99.99,,,0.00,Acu-Link.com,2013-06-13 12:56:00,
2013-06-13 08:11:00,86.2,85.9,29.55,East,90,5.3,-999.0,99,-99.99,,,0.00,Acu-Link.com,2013-06-13 13:11:00,
2013-06-13 08:26:00,86.9,86.6,29.56,West,270,6.8,-999.0,99,-99.99,,,0.00,Acu-Link.com,2013-06-13 13:26:00,
2013-06-13 08:41:00,85.3,85.0,29.54,WNW,292,2.7,-999.0,99,-99.99,,,0.00,Acu-Link.com,2013-06-13 13:41:00,
2013-06-13 08:56:00,85.6,85.3,29.55,NW,315,4.2,-999.0,99,-99.99,,,0.00,Acu-Link.com,2013-06-13 13:56:00,
2013-06-13 09:12:00,86.0,85.7,29.54,NW,315,4.2,-999.0,99,-99.99,,,0.00,Acu-Link.com,2013-06-13 14:12:00,
2013-06-13 09:27:00,86.5,86.2,29.54,SSW,202,4.7,-999.0,99,-99.99,,,0.00,Acu-Link.com,2013-06-13 14:27:00,
2013-06-13 09:42:00,83.7,83.4,29.55,WNW,292,3.7,-999.0,99,-99.99,,,0.00,Acu-Link.com,2013-06-13 14:42:00,
2013-06-13 09:57:00,84.2,83.9,29.56,West,270,6.8,-999.0,99,-99.99,,,0.00,Acu-Link.com,2013-06-13 14:57:00,
2013-06-13 10:12:00,83.3,83.0,29.56,WNW,292,2.7,-999.0,99,-99.99,,,0.00,Acu-Link.com,2013-06-13 15:12:00,
2013-06-13 10:27:00,87.1,86.5,29.55,West,270,13.0,-999.0,98,-99.99,,,0.00,Acu-Link.com,2013-06-13 15:27:00,
2013-06-13 10:42:00,87.4,85.1,29.56,NW,315,6.8,-999.0,93,-99.99,,,0.00,Acu-Link.com,2013-06-13 15:42:00,
2013-06-13 10:57:00,85.3,84.7,29.56,WSW,247,6.3,-999.0,98,-99.99,,,0.00,Acu-Link.com,2013-06-13 15:57:00,
2013-06-13 11:13:00,86.5,83.5,29.57,West,270,10.4,-999.0,91,-99.99,,,0.00,Acu-Link.com,2013-06-13 16:13:00,
2013-06-13 11:28:00,85.8,81.1,29.58,West,270,8.3,-999.0,86,-99.99,,,0.00,Acu-Link.com,2013-06-13 16:28:00,
2013-06-13 11:43:00,84.6,82.0,29.59,West,270,6.8,-999.0,92,-99.99,,,0.00,Acu-Link.com,2013-06-13 16:43:00,
2013-06-13 11:58:00,84.7,80.4,29.59,West,270,10.9,-999.0,87,-99.99,,,0.00,Acu-Link.com,2013-06-13 16:58:00,
2013-06-13 12:13:00,84.7,80.0,29.60,WSW,247,7.3,-999.0,86,-99.99,,,0.00,Acu-Link.com,2013-06-13 17:13:00,
2013-06-13 12:28:00,84.4,79.4,29.59,NW,315,13.0,-999.0,85,-99.99,,,0.00,Acu-Link.com,2013-06-13 17:28:00,
2013-06-13 12:43:00,84.0,79.7,29.61,West,270,7.3,-999.0,87,-99.99,,,0.00,Acu-Link.com,2013-06-13 17:43:00,
2013-06-13 12:58:00,85.3,79.9,29.61,NW,315,3.2,-999.0,84,-99.99,,,0.00,Acu-Link.com,2013-06-13 17:58:00,
2013-06-13 13:13:00,83.8,78.8,29.61,NNW,337,4.2,-999.0,85,-99.99,,,0.00,Acu-Link.com,2013-06-13 18:13:00,
2013-06-13 13:29:00,81.3,78.7,29.62,NNW,337,8.3,-999.0,92,-99.99,,,0.00,Acu-Link.com,2013-06-13 18:29:00,
2013-06-13 13:44:00,84.6,80.3,29.63,West,270,4.7,-999.0,87,-99.99,,,0.00,Acu-Link.com,2013-06-13 18:44:00,
2013-06-13 13:59:00,80.6,78.7,29.63,WNW,292,5.8,-999.0,94,-99.99,,,0.00,Acu-Link.com,2013-06-13 18:59:00,
2013-06-13 14:14:00,81.0,78.4,29.62,WSW,247,4.7,-999.0,92,-99.99,,,0.00,Acu-Link.com,2013-06-13 19:14:00,
2013-06-13 14:29:00,82.8,78.9,29.63,SW,225,10.4,-999.0,88,-99.99,,,0.00,Acu-Link.com,2013-06-13 19:29:00,
2013-06-13 14:44:00,80.6,78.4,29.63,SSW,202,1.7,-999.0,93,-99.99,,,0.00,Acu-Link.com,2013-06-13 19:44:00,
2013-06-13 14:59:00,82.2,79.3,29.62,West,270,0.0,-999.0,91,-99.99,,,0.00,Acu-Link.com,2013-06-13 19:59:00,
2013-06-13 15:14:00,79.9,78.0,29.62,WNW,292,7.3,-999.0,94,-99.99,,,0.00,Acu-Link.com,2013-06-13 20:14:00,
2013-06-13 15:29:00,79.2,78.6,29.62,West,270,3.2,-999.0,98,-99.99,,,0.00,Acu-Link.com,2013-06-13 20:29:00,
2013-06-13 15:45:00,78.4,78.1,29.62,NW,315,2.2,-999.0,99,-99.99,,,0.00,Acu-Link.com,2013-06-13 20:45:00,
2013-06-13 16:00:00,78.4,78.1,29.62,NNW,337,3.2,-999.0,99,-99.99,,,0.00,Acu-Link.com,2013-06-13 21:00:00,
2013-06-13 16:15:00,78.3,78.0,29.63,West,270,3.7,-999.0,99,-99.99,,,0.00,Acu-Link.com,2013-06-13 21:15:00,
2013-06-13 16:30:00,79.9,79.6,29.61,WNW,292,3.7,-999.0,99,-99.99,,,0.00,Acu-Link.com,2013-06-13 21:30:00,
2013-06-13 16:45:00,78.6,78.3,29.62,NNW,337,0.0,-999.0,99,-99.99,,,0.00,Acu-Link.com,2013-06-13 21:45:00,
2013-06-13 17:00:00,78.8,78.5,29.62,NW,315,5.3,-999.0,99,-99.99,,,0.00,Acu-Link.com,2013-06-13 22:00:00,
2013-06-13 17:15:00,81.3,79.7,29.61,NNW,337,0.0,-999.0,95,-99.99,,,0.00,Acu-Link.com,2013-06-13 22:15:00,
2013-06-13 17:30:00,81.3,79.4,29.60,WNW,292,3.7,-999.0,94,-99.99,,,0.00,Acu-Link.com,2013-06-13 22:30:00,
2013-06-13 17:45:00,81.3,79.4,29.60,West,270,7.8,-999.0,94,-99.99,,,0.00,Acu-Link.com,2013-06-13 22:45:00,
2013-06-13 18:01:00,83.1,79.2,29.61,NNW,337,5.8,-999.0,88,-99.99,,,0.00,Acu-Link.com,2013-06-13 23:01:00,
2013-06-13 18:16:00,85.3,79.2,29.61,ESE,112,4.7,-999.0,82,-99.99,,,0.00,Acu-Link.com,2013-06-13 23:16:00,
2013-06-13 18:31:00,83.3,77.2,29.62,West,270,0.0,-999.0,82,-99.99,,,0.00,Acu-Link.com,2013-06-13 23:31:00,
2013-06-13 18:46:00,83.8,76.2,29.60,NNE,22,0.0,-999.0,78,-99.99,,,0.00,Acu-Link.com,2013-06-13 23:46:00,
2013-06-13 19:01:00,82.9,75.3,29.62,NNW,337,1.7,-999.0,78,-99.99,,,0.00,Acu-Link.com,2013-06-14 00:01:00,
2013-06-13 19:16:00,82.2,74.6,29.62,WNW,292,0.0,-999.0,78,-99.99,,,0.00,Acu-Link.com,2013-06-14 00:16:00,
2013-06-13 19:31:00,81.3,74.1,29.62,NNE,22,0.0,-999.0,79,-99.99,,,0.00,Acu-Link.com,2013-06-14 00:31:00,
2013-06-13 19:46:00,79.3,74.4,29.63,NNW,337,0.0,-999.0,85,-99.99,,,0.00,Acu-Link.com,2013-06-14 00:46:00,
2013-06-13 20:02:00,77.2,73.7,29.64,West,270,0.0,-999.0,89,-99.99,,,0.00,Acu-Link.com,2013-06-14 01:02:00,
2013-06-13 20:17:00,74.7,74.1,29.65,West,270,0.0,-999.0,98,-99.99,,,0.00,Acu-Link.com,2013-06-14 01:17:00,
2013-06-13 20:32:00,73.2,72.9,29.64,West,270,0.0,-999.0,99,-99.99,,,0.00,Acu-Link.com,2013-06-14 01:32:00,
2013-06-13 20:47:00,72.3,72.0,29.64,West,270,0.0,-999.0,99,-99.99,,,0.00,Acu-Link.com,2013-06-14 01:47:00,
2013-06-13 21:02:00,71.6,71.3,29.65,West,270,0.0,-999.0,99,-99.99,,,0.00,Acu-Link.com,2013-06-14 02:02:00,
2013-06-13 21:17:00,70.5,70.2,29.65,NE,45,0.0,-999.0,99,-99.99,,,0.00,Acu-Link.com,2013-06-14 02:17:00,
2013-06-13 21:32:00,69.6,69.3,29.66,NE,45,0.0,-999.0,99,-99.99,,,0.00,Acu-Link.com,2013-06-14 02:32:00,
2013-06-13 21:47:00,68.7,68.4,29.66,NE,45,0.0,-999.0,99,-99.99,,,0.00,Acu-Link.com,2013-06-14 02:47:00,
2013-06-13 22:03:00,67.6,67.3,29.66,NE,45,0.0,-999.0,99,-99.99,,,0.00,Acu-Link.com,2013-06-14 03:03:00,
2013-06-13 22:18:00,66.7,66.4,29.67,NE,45,0.0,-999.0,99,-99.99,,,0.00,Acu-Link.com,2013-06-14 03:18:00,
2013-06-13 22:33:00,66.6,66.3,29.67,WNW,292,0.0,-999.0,99,-99.99,,,0.00,Acu-Link.com,2013-06-14 03:33:00,
2013-06-13 22:48:00,66.6,66.3,29.67,WNW,292,0.0,-999.0,99,-99.99,,,0.00,Acu-Link.com,2013-06-14 03:48:00,
2013-06-13 23:03:00,66.7,66.4,29.67,NNW,337,0.0,-999.0,99,-99.99,,,0.00,Acu-Link.com,2013-06-14 04:03:00,
2013-06-13 23:18:00,67.1,66.8,29.68,North,0,0.0,-999.0,99,-99.99,,,0.00,Acu-Link.com,2013-06-14 04:18:00,
2013-06-13 23:33:00,67.3,67.0,29.68,North,0,0.0,-999.0,99,-99.99,,,0.00,Acu-Link.com,2013-06-14 04:33:00,
2013-06-13 23:48:00,66.9,66.6,29.69,WNW,292,0.0,-999.0,99,-99.99,,,0.00,Acu-Link.com,2013-06-14 04:48:00,